Location: Maiden
(35.5760°N, 81.2120°W)
Time: 19:15:44
(UTC-04:00)

Cosmos 2266 Rocket - Pass Details

Date: 14 June 2018
Orbit: 935 x 1007 km, 82.9° (Epoch: 17 October)

Event Time Altitude Azimuth Distance (km) Brightness Sun altitude
Rises 21:55:41 0° 1° (N) 3,743 7.7 -13.0°
Reaches altitude 10° 21:58:23 10° 8° (N) 2,789 6.9 -13.5°
Maximum altitude 22:04:28 43° 79° (ENE) 1,368 4.5 -14.4°
Enters shadow 22:08:21 21° 139° (SE) 2,069 5.1 -14.9°
